Regional Weather Roundup
Issued by NWS State College, PA

Home | Current Version | Previous Version | Graphics & Text | Print | Product List | Glossary On
Versions: 1 2 3 4 5 6 7 8 9 10 11 12 13 14 15 16 17 18 19 20 21 22 23 24 25 26 27 28 29 30 31 32 33 34 35 36 37 38 39 40 41 42 43 44 45 46 47 48 49 50
000
ASUS41 KCTP 221603
RWRCTP

REGIONAL WEATHER ROUNDUP
NATIONAL WEATHER SERVICE STATE COLLEGE PA
1200 PM EDT SUN APR 22 2018

Note: "fair" indicates few or no clouds below 12,000 feet with no
significant weather and/or obstructions to visibility.

* = STATION THAT DOES NOT REPORT PRECIPITATION /E.G. RAIN...SNOW...ETC/
    THUNDER OR FOG.

PAZ002>004-007>009-013>016-020>023-029>032-221700-
WESTERN PENNSYLVANIA

CITY           SKY/WX    TMP DP  RH WIND       PRES   REMARKS
ERIE           FAIR      52  27  38 N14       30.42S
MEADVILLE      FAIR      56  19  23 CALM      30.37F
FRANKLIN*      FAIR      57  22  25 NE8       30.37F
NEW CASTLE     FAIR      59  26  28 E8G16     30.36F
BEAVER COUNTY  SUNNY     57  28  33 SE5       30.35S
BUTLER*        FAIR      59  28  30 SE12      30.35F
PITTSBURGH INT PTSUNNY   59  28  30 E9        30.33F
PITTSBURGH     FAIR      59  30  33 NE8       30.32F
INDIANA*       SUNNY     57  27  30 SE8       30.39F
LATROBE        PTSUNNY   59  28  31 NE9       30.34F
WASHINGTON CO* FAIR      61  33  35 E6        30.35S
$$

PAZ004>006-010>012-017>019-024>028-033>037-041-042-045-046-049>053-221700-
CENTRAL PENNSYLVANIA

CITY           SKY/WX    TMP DP  RH WIND       PRES   REMARKS
BRADFORD       FAIR      54  16  22 E8        30.39F
DUBOIS         FAIR      57  24  28 E9        30.36F
CLEARFIELD     FAIR      56  23  27 E8        30.38F
JOHNSTOWN      FAIR      54  26  34 SE9       30.34F
ALTOONA        FAIR      57  25  29 SE7       30.38F
STATE COLLEGE  SUNNY     57  25  28 CALM      30.40F
WILLIAMSPORT   FAIR      58  12  16 VRB5      30.40F
SELINSGROVE    FAIR      59  23  25 CALM      30.42F
FT INDIANTOWN  FAIR      59  19  21 E6        30.41F
CAPITAL CITY   FAIR      59  23  25 E8        30.42F
HARRISBURG     PTSUNNY   60  27  28 SE6       30.41F
YORK           FAIR      59  27  29 E6        30.41F
$$

PAZ038>040-043-044-047-048-054-055-060>062-067>071-221700-
EASTERN PENNSYLVANIA

CITY           SKY/WX    TMP DP  RH WIND       PRES   REMARKS
SCRANTON       FAIR      57  20  23 NW12G17   30.41F
MOUNT POCONO   FAIR      52  14  22 NW7G20    30.39S
ALLENTOWN      FAIR      61  24  24 CALM      30.41F
QUAKERTOWN*    SUNNY     59  19  21 NW8       30.41F
READING        FAIR      60  21  22 VRB6      30.41F
LANCASTER      FAIR      58  25  28 VRB3      30.42F
COATESVILLE    FAIR      57  18  21 NE3       30.42F
POTTSTOWN      FAIR      57  21  24 CALM      30.43F
BLUE BELL      FAIR      55  23  28 CALM      30.43F
DOYLESTOWN     FAIR      60  17  18 N9        30.40F
WILLOW GROVE   NOT AVBL
NORTH PHILA    FAIR      62  26  25 VRB6      30.43F
PHILADELPHIA   PTSUNNY   59  21  23 SE6       30.43F
$$




USA.gov is the U.S. government's official web portal to all federal, state and local government web resources and services.